Weather History for Meridian NAS, MS

Change the Weather History Date:

Tuesday, November 26, 2013

  Actual Average Record
Temperature  
Mean Temperature 42 °F -  
Max Temperature 46 °F 62 °F 75 °F (2011)
Min Temperature 37 °F 41 °F 28 °F (2014)
Degree Days  
Heating Degree Days 22    
Moisture  
Dew Point 42 °F    
Average Humidity 92    
Maximum Humidity 97    
Minimum Humidity 86    
Precipitation  
Precipitation 1.54 in - - ()
Sea Level Pressure  
Sea Level Pressure 29.92 in    
Wind  
Wind Speed 10 mph (North)    
Max Wind Speed 21 mph    
Max Gust Speed 28 mph    
Visibility 5 miles    
Events Rain    
Averages and records for this station are not official NWS values.
T = Trace of Precipitation, MM = Missing Value Source: NWS Daily Summary

Daily Weather History Graph

Daily Weather History Graph

Search for Another Location

Airport:

Trip Planner

Search our weather history database for the weather conditions in past years. The results will help you decide how hot, cold, wet, or windy it might be!

Date:

Astronomy

Nov. 26, 2013 Rise Set
Actual Time 6:34 AM CST 4:49 PM CST
Civil Twilight 6:07 AM CST 5:15 PM CST
Nautical Twilight 5:37 AM CST 5:45 PM CST
Astronomical Twilight 5:07 AM CST 6:15 PM CST
Moon No Moon Rise 12:36 PM CST (11/26)
Length of Visible Light 11h 08m
Length of Day
10h 15m
Last Quarter, 41% of the Moon is Illuminated
Nov 26
Last Quarter
Dec 2
New
Dec 9
First Quarter
Dec 17
Full
Dec 25
Last Quarter

Hourly Weather History & Observations

Time (CST) Temp. Windchill Dew Point Humidity Pressure Visibility Wind Dir Wind Speed Gust Speed Precip Events Conditions
12:56 AM 43.0 °F 37.7 °F 41.0 °F 93% 30.05 in 4.0 mi NNE 9.2 mph - 0.16 in Rain Light Rain
1:56 AM 44.1 °F 38.1 °F 41.0 °F 89% 30.03 in 3.0 mi NE 11.5 mph - 0.05 in Rain Light Rain
2:04 AM 44.1 °F 39.0 °F 42.1 °F 93% 30.01 in 3.0 mi North 9.2 mph - 0.01 in Rain Light Rain
2:14 AM 44.1 °F 38.6 °F 42.1 °F 93% 29.99 in 3.0 mi ENE 10.4 mph - 0.04 in Rain Rain
2:19 AM 44.1 °F 38.6 °F 42.1 °F 93% 29.98 in 2.5 mi ENE 10.4 mph - 0.05 in Rain Rain
2:25 AM 44.1 °F 38.1 °F 42.1 °F 93% 29.98 in 4.0 mi ENE 11.5 mph - 0.05 in Rain Light Rain
2:56 AM 45.0 °F 39.3 °F 42.1 °F 90% 30.01 in 3.0 mi NE 11.5 mph 20.7 mph 0.13 in Rain Rain
3:07 AM 45.0 °F 40.6 °F 43.0 °F 93% 29.96 in 2.5 mi North 8.1 mph - 0.06 in Rain Heavy Rain
3:12 AM 45.0 °F 40.6 °F 43.0 °F 93% 29.96 in 1.8 mi North 8.1 mph - 0.10 in Rain Heavy Rain
3:19 AM 45.0 °F 42.6 °F 43.0 °F 93% 29.95 in 1.5 mi Variable 4.6 mph - 0.19 in Rain Heavy Rain
3:29 AM 45.0 °F 42.6 °F 43.0 °F 93% 29.95 in 1.5 mi Variable 4.6 mph - 0.31 in Rain Heavy Rain
3:40 AM 44.1 °F 41.5 °F 43.0 °F 96% 29.94 in 2.5 mi Variable 4.6 mph - 0.39 in Rain Heavy Rain
3:51 AM 44.6 °F 43.1 °F 42.8 °F 93% 29.94 in 3.0 mi NNE 3.5 mph - 0.46 in Rain Heavy Rain
3:56 AM 44.1 °F 41.5 °F 43.0 °F 96% 29.99 in 3.0 mi North 4.6 mph - 0.49 in Rain Heavy Rain
4:22 AM 45.0 °F 42.6 °F 43.0 °F 93% 29.93 in 4.0 mi NNE 4.6 mph - 0.07 in Rain Rain
4:39 AM 45.0 °F 41.2 °F 43.0 °F 93% 29.93 in 4.0 mi North 6.9 mph - 0.11 in Rain Rain
4:56 AM 45.0 °F 40.6 °F 43.0 °F 93% 29.95 in 4.0 mi NE 8.1 mph - 0.19 in Rain Rain
5:33 AM 45.0 °F 40.1 °F 43.0 °F 93% 29.87 in 5.0 mi ENE 9.2 mph - 0.12 in Rain Rain
5:56 AM 45.0 °F 39.7 °F 43.0 °F 93% 29.91 in 5.0 mi East 10.4 mph - 0.19 in Rain Rain
6:00 AM 44.6 °F 39.2 °F 42.8 °F 93% 29.87 in 5.0 mi East 10.4 mph - N/A Rain Rain
6:56 AM 45.0 °F 40.6 °F 44.1 °F 97% 29.90 in 7.0 mi ENE 8.1 mph - 0.10 in Rain Light Rain
7:38 AM 46.0 °F 41.0 °F 44.1 °F 93% 29.84 in 8.0 mi East 10.4 mph - 0.03 in Rain Light Rain
7:56 AM 46.0 °F 41.0 °F 44.1 °F 93% 29.86 in 9.0 mi East 10.4 mph - 0.04 in Rain Light Rain
8:03 AM 46.0 °F 41.0 °F 44.1 °F 93% 29.82 in 10.0 mi East 10.4 mph - 0.00 in Rain Light Rain
8:23 AM 46.0 °F 41.9 °F 44.1 °F 93% 29.87 in 7.0 mi NNW 8.1 mph - 0.01 in Rain Light Rain
8:39 AM 46.9 °F - 45.0 °F 93% 29.88 in 7.0 mi NNW 10.4 mph - 0.02 in Rain Light Rain
8:54 AM 46.4 °F 41.9 °F 44.6 °F 93% 29.87 in 9.0 mi NNW 9.2 mph - 0.02 in Rain Light Rain
8:56 AM 46.9 °F - 45.0 °F 93% 29.91 in 9.0 mi NNW 10.4 mph - 0.02 in Rain Light Rain
9:06 AM 46.9 °F - 45.0 °F 93% 29.87 in 10.0 mi NNW 10.4 mph - 0.00 in Rain Light Rain
9:56 AM 46.9 °F - 45.0 °F 93% 29.90 in 6.0 mi North 12.7 mph - 0.01 in Rain Light Rain
10:03 AM 46.0 °F 39.6 °F 44.1 °F 93% 29.86 in 3.0 mi North 15.0 mph 20.7 mph 0.00 in Rain Light Rain
10:11 AM 46.0 °F 38.8 °F 44.1 °F 93% 29.85 in 2.0 mi North 18.4 mph 23.0 mph 0.00 in Rain Light Rain
10:26 AM 45.0 °F 38.9 °F 43.0 °F 93% 29.87 in 2.5 mi North 12.7 mph 20.7 mph 0.00 in Rain Light Rain
10:56 AM 44.1 °F 37.1 °F 42.1 °F 93% 29.93 in 2.0 mi NNW 15.0 mph 23.0 mph 0.00 in Rain Light Rain
11:07 AM 44.1 °F 36.5 °F 42.1 °F 93% 29.89 in 1.8 mi NW 17.3 mph 21.9 mph 0.00 in Rain Light Rain
11:17 AM 43.0 °F 35.4 °F 41.0 °F 93% 29.89 in 2.0 mi NW 16.1 mph 24.2 mph 0.00 in Rain Light Rain
11:22 AM 43.0 °F 36.4 °F 41.0 °F 93% 29.89 in 1.8 mi NW 12.7 mph 24.2 mph 0.00 in Rain Light Rain
11:56 AM 43.0 °F 36.8 °F 41.0 °F 93% 29.92 in 1.8 mi NW 11.5 mph - 0.00 in Rain Light Rain
12:10 PM 44.1 °F 39.0 °F 42.1 °F 93% 29.86 in 2.5 mi NNW 9.2 mph - 0.00 in   Overcast
12:18 PM 44.1 °F 39.0 °F 42.1 °F 93% 29.85 in 4.0 mi North 9.2 mph - 0.00 in   Overcast
12:33 PM 44.1 °F 41.5 °F 42.1 °F 93% 29.84 in 3.0 mi North 4.6 mph - 0.01 in Rain Light Rain
12:53 PM 44.6 °F 39.2 °F 42.8 °F 93% 29.83 in 5.0 mi North 10.4 mph - 0.01 in   Overcast
12:56 PM 45.0 °F 39.7 °F 42.1 °F 90% 29.87 in 6.0 mi North 10.4 mph - 0.01 in   Overcast
1:56 PM 44.1 °F 39.0 °F 42.1 °F 93% 29.85 in 10.0 mi North 9.2 mph - N/A   Overcast
2:56 PM 44.1 °F 38.1 °F 41.0 °F 89% 29.88 in 10.0 mi North 11.5 mph - N/A   Overcast
3:56 PM 44.1 °F 38.6 °F 41.0 °F 89% 29.88 in 10.0 mi NNW 10.4 mph - N/A   Overcast
4:56 PM 43.0 °F 35.7 °F 39.9 °F 89% 29.90 in 10.0 mi NNW 15.0 mph - N/A   Overcast
5:37 PM 42.1 °F 34.2 °F 39.9 °F 92% 29.88 in 5.0 mi NNW 16.1 mph - N/A   Overcast
5:56 PM 42.1 °F 35.2 °F 39.9 °F 92% 29.93 in 3.0 mi NNW 12.7 mph - N/A   Overcast
6:32 PM 42.1 °F 35.2 °F 39.9 °F 92% 29.91 in 3.0 mi NNW 12.7 mph - N/A   Overcast
6:56 PM 42.1 °F 35.2 °F 39.9 °F 92% 29.94 in 4.0 mi NNW 12.7 mph - N/A   Overcast
7:56 PM 42.1 °F 34.9 °F 39.0 °F 89% 29.98 in 6.0 mi NNW 13.8 mph 25.3 mph 0.00 in Rain Light Rain
8:13 PM 42.1 °F 35.2 °F 39.9 °F 92% 29.93 in 2.5 mi NW 12.7 mph - 0.04 in Rain Rain
8:26 PM 42.1 °F 34.9 °F 39.0 °F 89% 29.93 in 4.0 mi NNW 13.8 mph - 0.05 in Rain Light Rain
8:56 PM 41.0 °F 32.8 °F 39.0 °F 93% 29.97 in 6.0 mi NNW 16.1 mph 23.0 mph 0.06 in Rain Light Rain
9:26 PM 41.0 °F 33.5 °F 39.0 °F 93% 29.96 in 7.0 mi NNW 13.8 mph - 0.03 in Rain Light Rain
9:56 PM 41.0 °F 33.5 °F 37.9 °F 89% 29.99 in 7.0 mi NNW 13.8 mph - 0.05 in Rain Light Rain
10:11 PM 39.9 °F 33.4 °F 37.9 °F 93% 29.96 in 7.0 mi NW 10.4 mph - 0.01 in Rain Light Rain
10:28 PM 39.9 °F 31.4 °F 36.0 °F 86% 29.97 in 10.0 mi North 16.1 mph 27.6 mph 0.02 in Rain Light Rain
10:40 PM 39.9 °F 32.9 °F 37.0 °F 89% 29.97 in 10.0 mi NNW 11.5 mph 24.2 mph 0.02 in Rain Light Rain
10:56 PM 39.0 °F 29.0 °F 36.0 °F 89% 30.01 in 10.0 mi North 20.7 mph 26.5 mph 0.03 in Rain Light Rain
11:56 PM 37.9 °F 29.2 °F 35.1 °F 89% 30.04 in 10.0 mi NNW 15.0 mph 25.3 mph 0.01 in Rain Light Rain